sat.trackr.live / text

‹ back to catalog

STARLINK-34483

NORAD 64367 · 2025-126Z

PAYLOAD ACTIVE UNKNOWN

§ Identity

Operator
Country
US
Launch date
2025-06-13
Launch site
AFWTR
Launch vehicle
Mass (kg)
RCS (m²)

Purposes: comms

External: N2YO · Heavens-Above · Gunter

§ Orbital elements

Epoch: 2026-09-20T22:36:45.349056Z

Period
94.14 min
Inclination
70.0070°
Eccentricity
0.0002909
Mean motion
15.29557464 rev/d
Perigee alt
475.1 km
Apogee alt
479.1 km
Semi-major
6,855.3 km
B*
2.5893e-5
RAAN
259.5685°
Arg perigee
268.2811°
Mean anomaly
91.8031°
Rev number
6,999

§ Raw data

STARLINK-344831 64367U 25126Z   26263.94219154  .00000616  00000+0  25893-4 0  99992 64367  70.0070 259.5685 0002909 268.2811  91.8031 15.29557464 69993

JSON: /api/v1/satellites/64367 · /tle

For live sub-satellite position, see the globe view (requires WebGL).

§ Visibility from observer

Set your observer location to see the next 7 days of passes ≥ 10°. The values pass through the URL so the page stays shareable.

No JS? Fill the form by hand. The geolocation button needs JavaScript.